Voltar ao catálogo

ATLAS 5 CENTAUR DEB

AtivoHEO
NORAD 44647·DEBRIS·🇺🇸 United States

Lançado Oct 17, 2018 de Cape Canaveral Space Force Station

Loading…

Próximas Passagens (próximas 24 horas)

TLE

AtualizadoSource: Space-Track

Época: Sep 5, 2026, 16:45 UTC

1 44647U 18079H   26248.69856183 -.00000163  00000-0  00000-0 0  9999
2 44647  13.5412  13.4955 4632318 359.2077   0.1564  1.88053275 54093

Acompanhe ATLAS 5 CENTAUR DEB em tempo real com AllMySat

Download on the App Store